FENGYUN 1C DEB

Satellite information

Favourite Embed

Satellite Type and Status

DEBRISIN ORBIT

Key statistics

Satellite FENGYUN 1C DEB at a glance.

Uptime

9497

Days in orbit

Revolutions

≈ 14.3

Per day

Orbit

SSO

Sun Synchronous Orbit

Inclination

98.7

Latest

Satellite identification and parameters

Extended collection of information and parameters for FENGYUN 1C DEB.

Object identification

Identified? True

Debris? True

Object name: FENGYUN 1C DEB

International designator: 1999-025DCW

Object number (NORAD): 33613

Object ID (CCSDS): 33613

Country: PEOPLES REPUBLIC OF CHINA (PRC)

Current information (Y/N): Y

RCS size: SMALL

Orbital parameters

Period: 100.647 minutes

Inclination: 98.7035 deg

SMA: 7167.387 km

Apoapsis: 810.272 km

Periapsis: 768.231 km

RAAN: 197.0497 deg

Eccentricy: 0.0029328

Argument of periapsis: 20.1213 deg

Mean anomaly: 340.1119 deg

Mean motion: 14.30742634 rev/day

Mean motion (dot): 0.00005984 rev/day2

B* drag term: 0.0022908 1/REarth

Two-line elements (TLE)

Creation date: May 6, 2025, 6:46 a.m.

Reference frame: TEME

Reference center: EARTH

Epoch: May 5, 2025, 10:09 p.m. UTC

TLE line 0: 0 FENGYUN 1C DEB

TLE line 1: 1 33613U 99025DCW 25125.92322608 .00005984 00000-0 22908-2 0 9997

TLE line 2: 2 33613 98.7035 197.0497 0029328 20.1213 340.1119 14.30742634879647

Live tracking on map

Real-time ground track for satellite FENGYUN 1C DEB.

In-orbit conjunctions

A list of the most updated potential collisions computed for object FENGYUN 1C DEB.

Target Orbit TCA Probability of collision Miss distance Type
COSMOS 1486 LEO 2025-01-22 13:10:26 0.000105102 773.0 (m) PAYLOAD

Associated space launch

Chinese polar orbiting meteorological satellite

FENGYUN 1C DEB was lifted into orbit during the mission ‘Long March 4B | Feng Yun 1C’, on board a Long March 4B space rocket.

The launch took place on May 10, 1999, 1:33 a.m. from Launch Complex 7.

For more information about the launch, click the button.

Launch to space Long March 4B | Feng Yun 1C
Long March 4B | Feng Yun 1C

Agency: N/A

Status: Launch Successful

Launch date: May 10, 1999, 1:33 a.m. UTC

Rocket: Long March 4B

Launch pad: Launch Complex 7

Location: Taiyuan Satellite Launch Center, People's Republic of China

...

Latest news about this satellite

There are no fresh news available about this satellite. Check back as we update our databases every day.


Newsletter sign-up

Weekly statistics, charts and insights to help you stay on top of the space industry.